{"data":{"norad_id":53915,"intl_designator":"2022-119AF","name":"STARLINK-5017","alt_names":[],"object_type":"PAYLOAD","status":"ACTIVE","operator":null,"country":"US","launch_date":"2022-09-24","launch_site_code":"AFETR","launch_vehicle":null,"mission":null,"orbit_class":"UNKNOWN","rcs_meters":null,"size_class":null,"mass_kg":null,"dimensions":null,"purposes":["comms"],"wikipedia_slug":null,"has_3d_model":false,"image_url":null,"decayed_at":null,"tle_current":{"epoch":"2026-06-15T12:03:51.238368Z","epoch_age_seconds":8467273,"freshness":"OLD","line1":"1 53915U 22119AF  26166.50267637  .05958936  12321-4  30400-3 0  9993","line2":"2 53915  53.2024 199.0642 0009176 226.8380 133.1903 16.42109353207096","mean_motion":16.42109353,"eccentricity":0.0009176,"inclination_deg":53.2024,"raan_deg":199.0642,"arg_perigee_deg":226.838,"mean_anomaly_deg":133.1903,"bstar":0.000304,"rev_number":20709,"period_min":87.692089285603,"perigee_km":154.19776787026,"apogee_km":166.19691905738,"semimajor_km":6538.3343434638,"source":"CELESTRAK","updated_at":"2026-06-16T09:00:41.108670Z"}}}